This demonstration page uses our WeatherBlox Daily Observations layout. Learn more.

Left ArrowRight Arrow

Hourly Observations for July 25, 2021

Temp ( °F °C ) Dew Point ( °F °C ) Humidity (%) Winds ( mph kmh ) Pressure ( in mb ) Visibility ( mi km ) Precip ( " mm )
12:15 am 00:15 Partly Cloudy 73 23 68 20 83 83 S 7 11 30.01 1016 10 16 N/A
12:35 am 00:35 Partly Cloudy 73 23 68 20 83 83 S 8 13 30.01 1016 10 16 N/A
12:55 am 00:55 Partly Cloudy 73 23 68 20 83 83 S 8 13 30.01 1016 10 16 N/A
1:15 am 01:15 Mostly Cloudy 73 23 68 20 83 83 S 9 15 30.00 1016 10 16 N/A
1:35 am 01:35 Cloudy 73 23 68 20 83 83 S 10 17 30.00 1016 10 16 N/A
1:55 am 01:55 Cloudy 72 22 68 20 88 88 SSW 8 13 30.00 1016 10 16 N/A
2:15 am 02:15 Cloudy 72 22 68 20 88 88 S 9 15 29.99 1016 10 16 N/A
2:35 am 02:35 Partly Cloudy 72 22 68 20 88 88 S 9 15 29.99 1016 10 16 N/A
2:55 am 02:55 Clear 72 22 68 20 88 88 SSW 9 15 29.98 1015 10 16 N/A
3:15 am 03:15 Partly Cloudy 70 21 68 20 94 94 S 9 15 29.97 1015 10 16 N/A
3:35 am 03:35 Clear 70 21 68 20 94 94 S 9 15 29.95 1014 10 16 N/A
3:55 am 03:55 Mostly Cloudy 70 21 68 20 94 94 SSW 6 9 29.95 1014 10 16 N/A
4:15 am 04:15 Mostly Cloudy 70 21 68 20 94 94 S 7 11 29.94 1014 10 16 N/A
4:35 am 04:35 Mostly Cloudy 70 21 68 20 94 94 S 6 9 29.94 1014 10 16 N/A
4:55 am 04:55 Cloudy 68 20 66 19 94 94 SSW 7 11 29.94 1014 10 16 N/A
5:15 am 05:15 Cloudy 68 20 66 19 94 94 S 6 9 29.94 1014 10 16 N/A
5:35 am 05:35 Mostly Cloudy 68 20 66 19 94 94 SW 5 7 29.94 1014 10 16 N/A
5:55 am 05:55 Partly Cloudy 68 20 66 19 94 94 SSW 6 9 29.94 1014 10 16 N/A
6:15 am 06:15 Partly Cloudy 68 20 66 19 94 94 S 3 6 29.94 1014 10 16 N/A
6:35 am 06:35 Partly Cloudy 68 20 64 18 88 88 S 3 6 29.94 1014 10 16 N/A
6:55 am 06:55 Partly Cloudy 66 19 64 18 94 94 N N/A 29.95 1014 10 16 N/A
7:15 am 07:15 Partly Cloudy 66 19 64 18 94 94 N N/A 29.96 1015 10 16 N/A
7:35 am 07:35 Partly Cloudy 68 20 64 18 88 88 N N/A 29.97 1015 10 16 N/A
7:55 am 07:55 Partly Cloudy 68 20 64 18 88 88 S 5 7 29.97 1015 10 16 N/A
8:15 am 08:15 Partly Cloudy 68 20 64 18 88 88 S 6 9 29.96 1015 10 16 N/A
8:35 am 08:35 Partly Cloudy 68 20 64 18 88 88 S 6 9 29.96 1015 10 16 N/A
8:55 am 08:55 Partly Cloudy 68 20 66 19 94 94 SSW 3 6 29.96 1015 10 16 N/A
9:15 am 09:15 Sunny 70 21 66 19 88 88 S 6 9 29.96 1015 10 16 N/A
9:35 am 09:35 Sunny 70 21 66 19 88 88 S 6 9 29.95 1014 10 16 N/A
9:55 am 09:55 Sunny 72 22 68 20 88 88 SSW 7 11 29.95 1014 10 16 N/A
10:15 am 10:15 Sunny 73 23 68 20 83 83 SSW 6 9 29.94 1014 10 16 N/A
10:35 am 10:35 Sunny 73 23 68 20 83 83 SSW 5 7 29.94 1014 10 16 N/A
10:55 am 10:55 Sunny 77 25 68 20 74 74 SSW 3 6 29.93 1014 10 16 N/A
11:15 am 11:15 Sunny 79 26 68 20 70 70 WSW 6 9 29.93 1014 10 16 N/A
11:35 am 11:35 Sunny 79 26 70 21 74 74 S 8 13 29.93 1014 10 16 N/A
11:55 am 11:55 Partly Cloudy 81 27 70 21 70 70 SSW 7 11 29.93 1014 10 16 N/A
12:15 pm 12:15 Partly Cloudy 82 28 70 21 66 66 WSW 7 11 29.93 1014 10 16 N/A
12:35 pm 12:35 Sunny 82 28 70 21 66 66 SW 7 11 29.93 1014 10 16 N/A
12:55 pm 12:55 Partly Cloudy 82 28 68 20 62 62 SW 8 13 29.93 1014 10 16 N/A
1:15 pm 13:15 Mostly Cloudy 82 28 70 21 66 66 N N/A 29.92 1013 10 16 N/A
1:35 pm 13:35 Mostly Cloudy 82 28 70 21 66 66 SSW 8 13 29.92 1013 10 16 N/A
1:55 pm 13:55 Cloudy 82 28 70 21 66 66 SW 7 11 29.92 1013 10 16 N/A
2:15 pm 14:15 Cloudy 84 29 70 21 62 62 S 10 17 29.91 1013 10 16 N/A
2:35 pm 14:35 Partly Cloudy 86 30 70 21 59 59 SSW 8 13 29.91 1013 10 16 N/A
2:55 pm 14:55 Sunny 86 30 70 21 59 59 S 9 15 29.90 1012 10 16 N/A
3:15 pm 15:15 Sunny 88 31 70 21 55 55 WSW 3 6 29.89 1012 10 16 N/A
3:35 pm 15:35 Partly Cloudy 90 32 70 21 52 52 SW 7 11 29.89 1012 10 16 N/A
3:55 pm 15:55 Partly Cloudy 88 31 70 21 55 55 SW 8 13 29.89 1012 10 16 N/A
4:15 pm 16:15 Mostly Cloudy 90 32 70 21 52 52 SW 7 11 29.88 1012 10 16 N/A
4:35 pm 16:35 Mostly Cloudy 88 31 72 22 59 59 SSW 12 19 29.88 1012 10 16 N/A
4:55 pm 16:55 Mostly Cloudy 88 31 72 22 59 59 SW 9 15 29.87 1011 10 16 N/A
5:15 pm 17:15 Cloudy 88 31 72 22 59 59 SSW 7 11 29.87 1011 10 16 N/A
5:35 pm 17:35 Partly Cloudy 88 31 72 22 59 59 SW 8 13 29.87 1011 10 16 N/A
5:55 pm 17:55 Sunny 88 31 72 22 59 59 WSW 8 13 29.86 1011 10 16 N/A
6:15 pm 18:15 Sunny 88 31 72 22 59 59 SW 9 15 29.86 1011 10 16 N/A
6:35 pm 18:35 Sunny 88 31 72 22 59 59 SSW 7 11 29.86 1011 10 16 N/A
6:55 pm 18:55 Partly Cloudy 88 31 72 22 59 59 SW 6 9 29.86 1011 10 16 N/A
7:15 pm 19:15 Partly Cloudy 88 31 72 22 59 59 SSW 9 15 29.86 1011 10 16 N/A
7:35 pm 19:35 Sunny 86 30 72 22 62 62 SW 7 11 29.86 1011 10 16 N/A
7:55 pm 19:55 Sunny 86 30 72 22 62 62 SW 7 11 29.86 1011 10 16 N/A
8:15 pm 20:15 Sunny 84 29 72 22 66 66 SW 7 11 29.86 1011 10 16 N/A
8:35 pm 20:35 Partly Cloudy 82 28 72 22 70 70 SW 8 13 29.87 1012 10 16 N/A
8:55 pm 20:55 Partly Cloudy 82 28 72 22 70 70 SW 7 11 29.87 1012 10 16 N/A
9:15 pm 21:15 Mostly Cloudy 82 28 72 22 70 70 SW 3 6 29.88 1012 10 16 N/A
9:35 pm 21:35 Mostly Cloudy 81 27 72 22 74 74 SSW 6 9 29.88 1012 10 16 N/A
9:55 pm 21:55 Mostly Cloudy 81 27 72 22 74 74 SW 6 9 29.88 1012 10 16 N/A
10:15 pm 22:15 Partly Cloudy 81 27 72 22 74 74 SW 6 9 29.89 1012 10 16 N/A
10:35 pm 22:35 Clear 79 26 72 22 79 79 SW 6 9 29.90 1013 10 16 N/A
10:55 pm 22:55 Partly Cloudy 79 26 72 22 79 79 SW 5 7 29.90 1013 10 16 N/A
11:15 pm 23:15 Clear 77 25 72 22 83 83 SW 5 7 29.90 1013 10 16 N/A
11:35 pm 23:35 Clear 77 25 72 22 83 83 WSW 6 9 29.90 1013 10 16 N/A
11:55 pm 23:55 Clear 77 25 72 22 83 83 WSW 6 9 29.90 1013 10 16 N/A

Powered by AerisWeather